Location: Roanoke
(37.2710°N, 79.9420°W)
Time: 22:15:59
(UTC-05:00)

Courier 1B Rocket - Pass Details

Date: 23 November 2019
Orbit: 920 x 1202 km, 28.2° (Epoch: 10 December)

Event Time Altitude Azimuth Distance (km) Brightness Sun altitude
Rises 18:12:55 0° 264° (W) 3,882 10.0 -13.5°
Reaches altitude 10° 18:16:10 10° 251° (WSW) 2,971 9.0 -14.1°
Maximum altitude 18:21:50 24° 200° (SSW) 2,162 7.2 -15.2°
Drops below altitude 10° 18:27:44 10° 150° (SSE) 3,092 7.4 -16.3°
Sets 18:31:12 0° 137° (SE) 4,075 8.0 -17.0°
